Location: Newark
(48.9320°N, 2.2664°E)
Time: 04:44:34
(UTC+00:00)

Transit 4A - All Passes

Search period start: 27 February 2020 00:00
Search period end: 08 March 2020 00:00
Orbit: 872 x 973 km, 66.8° (Epoch: 26 February)

Date Brightness Start Highest point End Pass type
(mag) Time Alt. Az. Time Alt. Az. Time Alt. Az.
27 Feb - 00:36:41 10° WSW 00:42:02 35° NW 00:47:22 10° NNE visible
27 Feb - 02:26:55 10° NW 02:30:13 15° NNW 02:33:32 10° NNE visible
27 Feb - 04:15:54 10° NNW 04:19:10 15° NNE 04:22:25 10° NE visible
27 Feb - 06:02:06 10° NNW 06:07:23 34° NE 06:12:43 10° ESE visible
27 Feb - 07:48:20 10° NW 07:54:05 62° WSW 07:59:57 10° SSE daylight
27 Feb - 09:38:05 10° W 09:39:17 11° W 09:40:30 10° WSW daylight
27 Feb - 21:15:54 10° SE 21:19:12 15° ESE 21:22:29 10° ENE night (unlit)
27 Feb - 22:58:45 10° SSW 23:04:40 82° ESE 23:10:31 10° NE visible
28 Feb - 00:46:41 10° W 00:51:40 28° NW 00:56:37 10° NNE visible
28 Feb - 02:37:10 10° NW 02:40:06 14° N 02:43:03 10° NNE visible
28 Feb - 04:25:19 10° NNW 04:29:00 17° NNE 04:32:43 10° ENE visible
28 Feb - 06:11:21 10° NNW 06:16:56 44° NE 06:22:34 10° ESE daylight
28 Feb - 07:57:48 10° NW 08:03:19 43° WSW 08:08:53 10° S daylight
28 Feb - 21:23:44 10° SSE 21:28:12 23° ESE 21:32:40 10° ENE night (unlit)
28 Feb - 23:08:06 10° SW 23:14:00 74° NW 23:19:52 10° NNE visible
29 Feb - 00:56:49 10° W 01:01:20 23° NNW 01:05:52 10° NNE visible
29 Feb - 02:47:16 10° NNW 02:50:00 13° N 02:52:46 10° NNE visible
29 Feb - 04:34:38 10° NNW 04:38:48 20° NNE 04:43:00 10° ENE visible
29 Feb - 06:20:38 10° NNW 06:26:25 58° NE 06:32:15 10° SE daylight
29 Feb - 08:07:26 10° NW 08:12:27 30° WSW 08:17:34 10° S daylight
29 Feb - 21:32:07 10° S 21:37:18 33° ESE 21:42:27 10° NE night (unlit)
29 Feb - 23:17:39 10° SW 23:23:25 54° NW 23:29:09 10° NNE visible
01 Mar - 01:07:01 10° WNW 01:11:06 19° NNW 01:15:09 10° NNE visible
01 Mar - 02:57:09 10° NNW 02:59:55 13° N 03:02:42 10° NNE visible
01 Mar - 04:43:54 10° NNW 04:48:33 24° NNE 04:53:13 10° E visible
01 Mar - 06:29:56 10° NW 06:35:49 79° NE 06:41:46 10° SE daylight
01 Mar - 08:17:16 10° WNW 08:21:32 21° WSW 08:25:52 10° SSW daylight
01 Mar - 21:40:52 10° S 21:46:28 47° ESE 21:52:01 10° NE night (unlit)
01 Mar - 23:27:23 10° WSW 23:32:55 41° NW 23:38:25 10° NNE visible
02 Mar - 01:17:18 10° WNW 01:20:54 16° NNW 01:24:29 10° NNE visible
02 Mar - 03:06:48 10° NNW 03:09:49 14° N 03:12:51 10° NE visible
02 Mar - 04:53:09 10° NNW 04:58:13 29° NE 05:03:18 10° E visible
02 Mar - 06:39:17 10° NW 06:45:08 76° WSW 06:51:05 10° SSE daylight
02 Mar - 08:27:33 10° WNW 08:30:32 14° WSW 08:33:33 10° SW daylight
02 Mar - 20:08:30 10° ESE 20:10:27 12° E 20:12:23 10° E night (unlit)
02 Mar - 21:49:51 10° SSW 21:55:41 66° ESE 22:01:29 10° NE night (unlit)
02 Mar - 23:37:16 10° W 23:42:29 32° NW 23:47:41 10° NNE visible
03 Mar - 01:27:36 10° NW 01:30:45 15° NNW 01:33:55 10° NNE visible
03 Mar - 03:16:17 10° NNW 03:19:42 16° NNE 03:23:07 10° NE visible
03 Mar - 05:02:25 10° NNW 05:07:48 37° NE 05:13:16 10° ESE visible
03 Mar - 06:48:42 10° NW 06:54:24 54° WSW 07:00:11 10° SSE daylight
03 Mar - 20:15:37 10° SE 20:19:25 18° ESE 20:23:11 10° ENE night (unlit)
03 Mar - 21:59:05 10° SW 22:04:59 89° NW 22:10:52 10° NE night (unlit)
03 Mar - 23:47:18 10° W 23:52:06 26° NNW 23:56:55 10° NNE visible
04 Mar - 01:37:48 10° NW 01:40:39 14° N 01:43:30 10° NNE visible
04 Mar - 03:25:39 10° NNW 03:29:31 18° NNE 03:33:25 10° ENE visible
04 Mar - 05:11:39 10° NNW 05:17:20 48° NE 05:23:04 10° ESE visible
04 Mar - 06:58:13 10° NW 07:03:36 38° WSW 07:09:02 10° S daylight
04 Mar - 20:23:42 10° SSE 20:28:28 26° ESE 20:33:11 10° NE night (unlit)
04 Mar - 22:08:30 10° SW 22:14:22 66° NW 22:20:11 10° NNE visible
04 Mar - 23:57:27 10° WNW 00:01:49 21° NNW 00:06:11 10° NNE visible
05 Mar - 01:47:50 10° NNW 01:50:34 13° N 01:53:18 10° NNE visible
05 Mar - 03:34:57 10° NNW 03:39:18 21° NNE 03:43:41 10° ENE visible
05 Mar - 05:20:56 10° NNW 05:26:47 65° NE 05:32:42 10° SE visible
05 Mar - 07:07:54 10° NW 07:12:43 27° WSW 07:17:35 10° SSW daylight
05 Mar - 20:32:14 10° S 20:37:35 37° ESE 20:42:53 10° NE night (unlit)
05 Mar - 22:18:07 10° WSW 22:23:48 49° NW 22:29:28 10° NNE visible
06 Mar - 00:07:43 10° WNW 00:11:36 18° NNW 00:15:29 10° NNE visible
06 Mar - 01:57:37 10° NNW 02:00:28 14° N 02:03:19 10° NE visible
06 Mar - 03:44:12 10° NNW 03:49:01 25° NNE 03:53:51 10° E visible
06 Mar - 05:30:16 10° NW 05:36:10 88° ENE 05:42:08 10° SE visible
06 Mar - 07:17:51 10° WNW 07:21:46 19° WSW 07:25:43 10° SSW daylight
06 Mar - 20:41:03 10° SSW 20:46:46 53° ESE 20:52:25 10° NE night (unlit)
06 Mar - 22:27:55 10° WSW 22:33:19 37° NW 22:38:44 10° NNE visible
07 Mar - 00:18:00 10° NW 00:21:25 16° NNW 00:24:51 10° NNE visible
07 Mar - 02:07:13 10° NNW 02:10:22 15° NNE 02:13:31 10° NE visible
07 Mar - 03:53:28 10° NNW 03:58:39 32° NE 04:03:54 10° E visible
07 Mar - 05:39:38 10° NW 05:45:28 68° WSW 05:51:23 10° SSE visible
07 Mar - 07:28:31 10° W 07:30:45 12° WSW 07:32:59 10° SW daylight
07 Mar - 19:07:51 10° SE 19:10:39 14° ESE 19:13:26 10° ENE visible
07 Mar - 20:50:08 10° SSW 20:56:00 75° ESE 21:01:51 10° NE visible
07 Mar - 22:37:51 10° W 22:42:55 29° NW 22:47:59 10° NNE visible
